Theta_e
319 319 322 322 325 326 328 328 327 328 324 323 327 326 323 323 321 319 325 320 317 318 315 316 315 315 319 320 321 323 326 327 329 325 327 332 322 322 325 322 322 319 322 330 332 335 337 338 339 339 340 339 340 340 340 340 339 339 338 337 335 336 338 339 338 338 339 339 339 339 339 339 339 339 338 339 338 338 337 336 337 338 339 339 339 339 340 339 339 338 338 337 336 334 332 331 330
320 323 325 324 325 323 328 329 329 330 325 321 323 327 325 321 320 324 330 325 321 314 312 317 316 317 320 320 319 319 322 323 325 325 325 323 323 325 324 324 323 319 322 329 332 335 337 338 339 339 339 339 339 339 339 339 339 339 338 338 337 337 338 338 338 338 339 339 339 339 339 339 339 339 338 338 337 337 337 336 336 338 339 339 339 339 338 338 338 337 336 336 335 333 332 330 330
322 325 326 325 324 324 331 328 325 327 320 317 319 324 321 321 326 327 328 323 318 311 312 317 316 318 320 320 319 319 323 324 322 326 326 319 326 327 323 326 322 320 323 328 332 334 336 337 338 338 339 340 339 339 339 339 339 338 338 338 338 338 338 338 338 338 338 339 339 339 339 339 338 338 337 336 335 336 336 336 336 337 337 338 338 338 337 337 337 336 335 335 334 332 331 329 328
324 325 324 326 326 330 342 333 331 327 317 319 318 322 325 327 331 328 324 319 315 311 314 316 317 317 317 320 319 318 321 324 319 324 328 319 326 327 324 326 322 323 325 329 331 332 335 336 337 338 339 340 339 339 338 339 338 338 338 337 337 338 338 338 338 338 338 339 338 339 338 338 338 337 336 335 334 334 334 334 335 335 335 336 336 336 335 336 336 336 335 335 333 330 328 327 326
324 323 320 326 328 330 336 328 330 326 316 324 319 322 334 332 330 326 322 319 316 315 315 316 319 316 314 319 319 321 323 322 316 317 322 319 323 325 325 326 323 324 326 329 331 332 334 335 337 337 338 339 339 339 338 338 338 338 337 337 337 337 337 337 337 338 338 339 338 338 338 337 337 335 335 334 333 333 332 333 333 333 333 333 334 334 334 335 335 334 334 332 329 326 325 324 324
323 322 319 321 321 322 327 323 326 326 320 323 320 324 330 327 325 321 320 320 317 316 315 315 317 315 315 319 316 320 322 320 318 317 318 319 322 324 326 326 324 325 326 329 332 333 334 336 337 336 337 337 338 338 337 337 337 337 337 337 337 337 337 337 338 338 338 338 337 337 337 336 335 334 334 333 332 331 331 331 331 331 331 332 332 332 332 332 332 331 329 327 324 322 321 319 318
322 322 323 321 320 321 328 327 328 331 324 319 322 325 322 322 321 318 319 318 317 315 313 315 315 314 317 317 314 316 315 316 319 319 319 319 321 324 327 327 325 325 327 329 332 334 335 336 336 337 336 336 337 337 337 336 337 336 336 337 337 337 337 338 338 338 338 337 336 336 336 335 334 333 332 331 330 330 330 330 330 330 330 330 330 329 328 328 327 325 324 321 318 315 313 311 309
321 324 326 328 328 325 329 329 328 329 324 318 320 324 322 322 319 317 319 318 317 316 313 316 315 316 316 313 317 318 312 315 317 317 319 318 320 325 327 327 326 325 328 330 332 334 335 336 335 336 335 335 337 336 335 335 336 335 336 337 336 337 337 337 337 337 337 336 335 335 334 334 333 331 330 329 329 328 328 328 329 328 328 328 327 327 325 324 322 320 317 314 310 307 305 303 302
318 321 324 328 325 323 329 327 322 322 324 323 321 322 322 319 319 317 320 319 317 317 315 316 315 316 317 313 318 318 312 314 315 316 318 317 319 325 328 327 327 326 328 330 331 334 334 335 334 335 335 335 336 334 334 334 335 334 335 335 334 336 335 335 335 336 335 334 333 333 333 331 330 329 328 327 327 327 326 327 326 326 326 326 325 324 322 320 318 313 309 306 303 301 300 300 299
318 319 322 326 324 321 324 323 320 321 324 324 320 319 318 316 317 317 319 318 316 317 315 313 312 314 316 315 318 317 315 314 314 316 317 317 319 324 328 327 328 327 327 330 331 332 332 334 333 334 334 334 333 333 334 335 335 333 333 333 332 333 333 332 333 334 332 331 331 331 331 329 328 327 326 326 326 325 325 325 325 325 325 323 322 321 318 314 310 307 303 301 300 299 299 299 299
323 326 327 328 326 321 320 323 324 325 322 319 321 320 317 315 314 316 318 316 316 316 314 312 314 316 315 316 321 316 313 314 314 316 317 317 317 322 327 327 328 328 328 328 330 331 330 331 332 333 333 333 331 332 334 335 335 333 332 331 330 330 331 331 330 330 329 329 328 329 329 327 327 326 325 325 324 324 324 324 323 323 321 320 318 316 312 308 305 302 299 299 299 299 299 299 299
323 331 338 334 327 324 322 326 326 326 324 320 324 322 315 315 316 319 320 318 317 317 315 314 315 317 316 321 325 315 311 313 314 316 317 317 317 320 326 327 328 329 329 328 328 329 329 330 331 333 333 332 331 331 332 332 333 333 332 331 330 329 329 329 328 328 328 328 327 327 327 326 326 325 325 324 322 321 321 319 318 317 316 314 312 309 306 304 301 299 298 299 298 298 298 298 298
330 332 335 326 322 326 324 328 329 327 328 326 324 316 310 316 321 321 322 320 318 318 317 314 314 315 317 323 323 317 314 313 314 316 317 316 317 320 325 327 327 329 329 329 328 329 329 330 330 331 331 331 332 331 330 328 330 331 331 330 329 328 328 328 328 327 327 327 327 326 326 325 324 324 324 323 319 317 315 312 310 309 308 307 305 304 302 301 299 298 298 298 298 298 298 298 298
333 332 330 321 320 326 325 326 328 324 324 328 324 314 311 318 322 320 319 320 320 319 315 310 312 315 317 319 323 327 318 312 314 315 316 316 317 320 324 327 327 328 329 329 329 329 329 329 329 329 328 329 330 329 328 327 328 330 330 329 329 328 328 328 327 326 326 326 326 325 324 324 323 323 322 320 316 313 310 306 304 304 303 303 301 301 300 299 298 298 298 298 298 298 298 298 298
324 331 333 328 323 324 324 322 323 321 319 324 320 313 315 316 317 318 316 318 320 315 310 308 310 315 318 317 324 328 314 311 314 315 316 316 317 320 324 326 326 327 327 327 327 328 328 327 327 326 325 326 327 326 326 326 328 329 328 328 328 327 327 327 326 326 325 325 325 324 323 323 322 321 320 317 313 311 309 306 304 304 304 302 299 299 298 298 298 298 298 298 298 298 298 298 298
320 331 331 326 324 322 323 321 319 320 322 326 318 311 317 316 313 316 314 314 317 312 310 313 311 313 318 319 319 316 310 312 314 314 316 316 318 322 324 325 326 326 326 326 326 326 326 326 325 325 324 324 324 325 325 325 327 327 327 327 327 327 326 326 326 325 324 324 324 323 323 321 320 319 317 314 313 311 309 306 307 307 304 300 298 298 298 297 297 297 297 297 297 297 297 298 298
319 330 328 323 325 322 324 322 319 321 327 331 320 313 316 316 312 312 309 309 314 315 315 316 312 311 316 317 314 310 310 312 313 315 316 317 319 321 322 324 324 325 326 325 325 325 324 324 324 323 323 323 323 323 325 324 325 327 326 326 326 326 326 325 325 324 324 323 323 322 322 320 317 316 314 311 311 310 306 306 308 307 302 299 298 297 297 297 297 297 297 297 297 297 297 297 297
323 329 325 322 326 324 325 324 321 320 322 325 320 314 314 316 315 311 310 312 314 315 315 314 312 312 312 311 310 310 311 312 313 315 315 316 318 318 320 321 323 324 325 325 325 324 324 324 323 322 321 322 322 322 324 325 325 326 326 326 326 325 325 325 324 324 323 322 322 320 320 317 314 313 311 309 308 306 305 305 308 306 301 298 297 297 297 297 297 297 297 297 297 297 298 298 298
330 328 320 325 330 325 323 324 322 318 317 322 321 314 312 315 314 311 313 317 317 315 315 314 313 313 311 309 308 309 309 310 313 313 314 315 315 317 318 319 321 322 323 325 325 324 324 323 322 321 320 321 321 322 324 324 323 324 325 325 325 325 325 324 324 323 322 321 319 317 316 314 311 310 308 307 306 304 304 305 306 305 300 297 297 297 297 297 297 297 298 298 298 298 298 298 298
328 324 321 331 330 323 321 321 320 317 316 318 319 315 313 314 312 311 313 316 317 315 315 315 315 315 314 312 309 307 309 310 311 312 313 313 315 316 317 318 319 321 323 323 324 324 324 324 323 322 320 320 321 321 323 323 322 323 324 324 324 324 324 324 323 322 320 318 316 314 313 311 308 307 306 306 306 304 304 305 306 304 299 297 297 297 297 297 297 298 298 298 298 298 298 298 298
322 320 326 333 324 320 321 322 319 317 314 314 317 316 314 313 310 312 313 315 316 315 315 314 315 315 315 316 310 306 306 307 308 311 311 312 313 314 316 318 319 320 321 321 322 323 324 324 323 323 321 320 320 320 322 321 320 321 322 322 323 323 324 324 322 321 319 316 314 312 310 308 306 305 305 305 305 304 303 304 304 301 298 297 297 297 297 298 298 298 298 299 298 298 298 297 297
319 320 325 329 321 317 321 323 319 315 314 314 317 316 314 312 310 312 313 314 315 316 316 315 315 314 314 314 311 307 308 308 307 308 310 311 312 313 314 316 317 317 318 319 321 322 323 323 323 323 322 320 320 320 320 320 319 320 320 320 322 322 324 323 321 319 317 314 312 310 308 307 305 304 304 303 303 302 301 302 301 299 297 297 297 297 297 297 298 298 298 298 298 298 297 297 296
319 321 322 324 320 318 320 322 321 317 315 316 317 315 313 312 313 314 312 313 315 315 315 315 314 311 309 309 312 318 320 316 310 307 309 311 311 312 313 314 316 316 317 317 318 320 321 322 323 323 322 321 320 319 320 320 318 318 319 319 320 321 322 322 319 316 314 312 310 308 306 305 303 302 302 302 301 300 300 300 299 298 297 297 297 296 297 297 298 298 298 298 297 297 296 296 295
318 321 321 321 318 318 319 318 320 319 316 316 315 314 314 314 314 313 311 313 313 313 314 313 310 306 306 309 313 318 319 316 310 307 309 310 311 313 313 314 314 315 315 316 317 318 319 321 322 322 322 321 320 320 320 320 318 317 318 319 319 320 321 320 317 314 312 310 307 306 304 303 301 300 300 299 298 298 298 298 298 297 297 296 296 296 297 298 298 298 297 297 296 296 295 295 295
318 320 321 321 319 321 320 316 318 319 317 313 312 315 316 314 313 311 311 312 312 313 312 311 310 308 308 310 311 311 312 311 307 307 308 308 310 311 311 312 312 313 313 315 315 316 317 318 320 321 322 321 320 320 319 320 319 318 318 318 319 320 320 318 315 313 310 308 306 305 303 302 299 298 298 297 297 297 297 297 297 296 296 296 296 296 296 297 298 297 297 296 296 295 295 294 294
320 319 321 321 319 319 317 315 316 317 317 313 312 315 314 312 312 311 312 312 311 311 310 310 310 311 310 309 309 308 309 310 307 307 307 307 308 308 310 310 310 312 313 314 314 315 316 316 318 319 320 321 320 319 319 318 319 318 318 317 318 319 318 316 314 312 309 306 304 303 302 300 298 297 297 296 296 296 296 296 296 296 296 295 295 296 296 297 297 297 296 295 295 294 294 294 294
319 319 319 319 316 315 313 314 315 313 314 313 312 314 313 311 311 311 313 315 313 311 312 311 311 312 311 309 308 306 306 307 306 306 307 307 306 307 308 309 309 311 311 312 313 314 314 315 316 317 318 320 319 319 318 317 317 317 317 317 318 318 316 315 312 310 307 305 303 301 300 299 297 296 296 296 296 296 296 296 295 295 295 295 295 296 296 296 296 296 296 295 295 294 294 293 293
315 314 315 316 314 312 311 312 312 310 311 311 310 311 312 310 310 312 312 315 315 313 314 313 312 313 311 309 308 306 306 304 303 305 307 306 307 308 307 309 310 310 310 311 312 312 313 314 314 315 317 318 318 318 317 317 317 316 316 317 317 316 315 314 312 309 306 304 302 300 299 297 296 296 296 296 296 296 296 295 295 295 295 295 295 295 296 295 295 295 295 294 294 294 293 293 293
311 311 313 315 314 312 311 313 312 309 310 311 309 310 312 312 313 314 310 312 314 312 314 313 311 310 309 309 307 307 306 303 302 303 305 306 308 308 308 310 310 310 311 311 310 310 312 313 313 314 314 315 317 317 317 317 316 315 315 315 315 315 314 313 311 308 305 303 301 300 299 297 296 296 295 295 296 296 295 295 295 295 295 295 295 295 295 295 295 294 294 294 293 293 293 293 292
311 311 312 313 313 313 311 311 311 309 311 312 309 310 315 314 314 313 310 311 312 312 313 312 310 309 308 309 308 308 306 304 303 303 305 306 307 308 308 310 310 310 310 309 309 310 311 311 312 312 313 314 315 316 316 316 315 315 315 314 314 315 314 312 309 307 305 303 302 300 298 297 296 296 295 295 295 295 295 295 295 295 294 294 295 295 295 295 295 294 294 293 293 292 292 292 292
313 310 313 313 312 316 314 311 310 309 311 310 309 311 313 312 312 311 310 311 311 311 312 310 309 309 309 310 310 310 309 306 304 303 305 306 307 307 308 309 309 309 309 309 310 310 310 309 310 311 311 312 313 314 315 315 315 315 314 314 313 314 314 312 309 307 305 303 301 300 298 297 296 295 295 295 295 295 295 295 295 294 294 294 294 294 295 294 294 294 293 293 292 292 291 291 292
320 311 316 318 313 317 316 312 311 310 310 307 309 312 311 310 312 310 309 309 310 311 312 311 310 309 309 309 308 309 309 307 304 304 305 305 306 307 307 308 308 309 309 309 310 309 309 308 309 309 309 310 311 312 313 314 314 314 314 313 313 313 313 313 310 308 305 303 301 299 298 297 296 295 295 295 295 295 295 295 294 294 294 294 294 294 294 294 294 293 293 293 292 292 291 291 291
323 313 315 318 314 313 312 313 314 311 310 308 308 312 311 311 313 311 309 308 309 310 310 309 309 308 308 307 307 308 308 307 307 306 306 305 305 306 307 307 307 308 309 309 309 308 308 308 308 308 308 309 309 310 311 312 312 312 313 312 312 312 312 312 311 308 305 303 301 300 298 297 295 295 295 295 295 295 295 295 294 294 294 294 294 294 294 293 293 293 292 292 292 292 291 291 291
320 314 314 316 314 312 311 314 315 310 310 310 309 309 309 310 311 311 309 309 309 309 308 308 308 308 308 308 308 307 307 307 308 307 307 306 306 306 307 307 307 307 308 308 308 308 308 308 308 307 307 307 307 308 309 310 310 311 310 310 310 310 310 311 310 308 306 303 302 300 298 297 296 295 295 295 295 295 295 295 294 294 293 294 293 293 293 293 292 292 292 291 291 291 291 291 292
317 316 315 314 313 311 312 312 313 312 310 310 309 308 308 308 308 308 308 308 309 308 308 308 307 308 308 308 308 308 308 308 308 308 307 307 307 307 307 307 307 307 307 307 307 307 308 307 307 307 307 306 306 306 306 307 308 308 308 308 308 307 308 308 308 307 306 304 302 300 298 297 296 295 295 295 295 295 295 295 294 293 293 293 293 293 293 292 292 291 291 291 291 291 291 291 292
314 314 313 313 312 311 312 311 311 311 309 308 309 308 308 308 308 308 308 308 308 308 308 308 308 308 308 308 308 308 308 308 308 307 307 308 308 308 308 308 307 307 307 306 306 307 307 307 307 306 306 306 305 304 304 304 305 305 305 305 305 305 306 306 306 306 305 304 302 300 298 297 296 295 295 295 295 295 295 295 294 293 293 293 293 293 292 292 292 291 291 291 291 291 290 291 291
311 311 312 312 311 310 310 310 310 309 308 309 310 309 309 309 308 308 308 308 308 308 308 309 309 309 309 309 310 310 309 310 309 307 307 307 307 307 307 307 307 306 306 305 305 306 306 306 306 305 306 305 304 304 303 303 303 304 303 303 304 304 304 304 304 305 305 303 302 300 298 297 296 295 295 295 295 295 295 295 294 293 293 293 293 293 293 293 292 292 291 290 291 291 291 290 291
311 312 312 311 311 310 309 309 310 308 308 310 311 310 309 308 309 308 308 308 309 309 309 309 309 309 310 310 310 310 311 312 311 309 307 306 307 307 306 307 307 306 306 306 305 306 306 305 305 305 305 304 304 304 303 303 303 303 303 303 303 303 302 302 303 303 303 302 301 299 298 297 296 296 296 296 296 296 295 295 294 294 293 293 293 292 292 292 292 291 291 290 290 291 291 291 291
312 312 311 312 311 311 310 310 311 309 308 311 312 310 308 308 308 308 309 309 309 309 309 309 309 309 310 310 310 311 312 312 311 309 307 305 306 307 306 306 306 306 306 306 305 305 305 305 305 305 304 304 304 303 303 303 303 303 303 302 302 301 301 301 301 301 300 299 299 298 297 296 296 296 296 296 296 296 296 295 295 294 294 293 293 292 291 291 291 291 291 291 291 290 290 290 291
312 312 311 312 311 312 312 311 313 311 308 311 310 309 309 309 309 309 308 309 309 309 310 309 309 310 310 310 311 311 311 311 309 309 309 306 304 305 305 306 306 306 305 305 305 304 304 304 305 304 304 304 303 303 303 303 302 302 302 301 300 300 299 299 299 298 298 297 297 297 296 296 296 296 296 296 296 296 296 296 295 295 294 293 293 292 292 291 291 291 291 291 291 290 290 290 291
313 313 311 312 312 312 311 311 313 311 311 312 310 311 313 314 315 315 311 310 310 309 309 310 310 309 309 310 310 310 310 310 310 310 313 312 307 303 304 305 305 304 305 305 305 304 304 304 304 304 304 303 303 303 302 302 302 301 300 299 299 299 298 297 297 297 296 296 296 296 296 296 296 296 296 296 296 296 296 296 296 295 295 294 293 292 292 292 291 291 291 291 291 291 291 290 290
312 314 313 311 311 311 311 312 311 311 316 314 311 313 316 317 319 322 320 318 316 312 312 316 314 310 309 311 310 310 311 311 313 314 315 315 307 302 304 305 304 304 305 305 305 304 304 304 304 304 303 303 302 302 302 301 301 300 300 299 298 298 297 297 297 297 296 296 296 296 295 295 295 295 296 296 296 296 296 296 296 295 295 294 293 292 292 291 291 291 291 291 291 291 292 291 290
312 316 317 313 311 312 312 312 311 314 317 312 312 317 316 315 317 321 321 321 320 317 317 317 314 310 312 313 310 310 311 312 317 318 316 315 308 304 305 304 304 304 304 304 304 304 303 303 303 303 303 303 302 301 301 301 300 300 300 299 299 299 298 298 298 297 297 297 296 296 295 295 295 295 295 295 296 296 296 296 296 296 295 295 294 293 292 291 291 291 291 291 291 291 291 291 291
315 316 317 317 314 314 313 311 311 315 315 312 313 315 314 315 315 316 317 317 319 318 317 314 312 312 313 312 309 310 312 313 317 317 315 315 309 304 303 303 304 305 304 304 303 303 303 303 302 303 303 302 302 301 301 300 300 300 300 299 299 299 299 299 298 298 297 297 296 296 295 295 295 295 295 295 295 295 295 295 296 296 296 295 295 294 293 292 291 291 291 290 290 290 291 292 292
316 313 313 315 314 313 312 311 313 313 312 314 313 312 315 318 315 314 314 316 320 318 315 313 313 316 318 315 308 308 313 313 313 312 312 312 306 301 301 303 305 305 305 304 303 303 303 302 302 302 302 302 302 301 301 300 300 300 300 299 299 299 299 299 299 298 298 297 296 296 295 295 294 294 294 295 295 295 295 295 295 295 295 295 295 295 294 292 291 291 290 290 290 290 290 291 292
314 310 311 314 314 314 313 313 316 317 316 316 314 314 317 320 317 317 315 316 322 319 314 315 316 318 323 319 308 307 314 313 311 311 312 308 302 301 302 303 304 305 305 304 304 303 303 303 302 302 302 302 301 301 301 300 300 300 299 299 299 299 299 299 298 298 298 297 296 296 295 295 294 294 294 294 294 295 295 295 295 295 295 295 295 295 294 293 291 291 291 291 291 290 290 290 291
311 311 315 316 315 315 316 317 317 318 318 316 316 316 316 319 321 320 319 319 321 319 316 320 319 319 325 320 307 308 313 312 312 314 313 306 301 302 304 303 304 304 304 304 303 303 303 302 302 302 302 301 301 301 300 300 300 300 300 299 299 299 299 298 298 298 297 297 296 296 295 295 294 294 294 294 294 294 294 295 295 295 295 295 295 295 294 293 292 291 291 290 290 290 290 290 290
311 315 317 316 317 317 318 320 317 317 320 317 316 315 314 319 319 317 321 321 318 318 316 319 321 322 326 317 304 308 312 310 313 314 314 309 305 304 303 301 302 303 303 303 302 302 302 302 302 301 301 301 300 300 300 300 300 300 300 299 299 299 298 298 298 297 297 296 296 296 295 295 294 294 294 294 294 294 294 294 294 294 294 294 295 295 294 294 292 291 290 290 290 290 290 290 289
311 315 315 313 317 318 317 320 319 318 320 315 311 312 313 317 317 316 319 317 314 315 315 317 319 320 321 311 303 309 310 308 311 311 310 308 307 305 301 299 300 299 300 301 301 301 300 300 300 300 301 300 300 299 299 300 299 299 299 298 299 298 298 298 297 297 297 296 296 295 295 294 294 294 294 294 295 295 294 294 294 294 294 294 294 294 294 293 292 291 290 290 289 289 289 289 289
310 313 315 314 317 318 318 321 320 318 321 314 309 312 315 317 321 319 315 314 316 316 314 315 315 314 315 309 307 311 308 306 308 307 304 304 303 301 298 298 298 297 298 298 298 299 299 299 299 299 299 299 299 299 299 299 299 299 298 298 298 298 298 298 297 297 297 296 296 295 295 295 294 295 295 295 295 295 295 295 295 294 294 294 294 294 294 293 293 291 291 290 289 289 289 289 289
309 313 316 316 319 322 322 324 323 322 324 316 308 314 319 321 324 320 317 319 320 318 316 314 314 315 313 309 310 310 306 304 305 302 301 300 299 297 296 297 296 296 296 296 297 297 297 298 297 297 297 297 297 298 297 298 298 298 298 298 298 297 297 297 297 297 296 296 296 295 295 295 295 295 295 295 295 294 294 294 294 294 294 294 294 294 293 293 292 291 291 290 290 289 289 289 289
312 314 315 314 318 321 319 321 324 322 323 318 313 317 319 317 318 317 316 318 317 318 318 314 314 316 313 309 308 305 302 302 301 299 298 296 295 294 294 295 294 295 295 295 295 295 296 296 296 296 296 296 296 296 297 297 296 297 297 297 297 297 297 297 297 297 296 296 296 295 295 295 295 295 295 294 294 294 294 294 293 293 294 293 293 293 293 292 292 291 291 290 289 289 289 288 289
313 313 314 314 316 318 317 319 322 321 320 321 319 320 318 316 318 316 315 316 317 320 319 313 312 311 308 306 303 301 300 299 298 297 295 294 293 293 293 293 293 294 294 294 294 294 294 294 295 295 295 295 295 295 296 296 296 296 296 296 296 296 296 296 296 296 296 296 295 295 295 295 295 295 295 295 294 294 294 293 293 293 292 292 292 292 292 292 291 291 290 290 289 289 289 288 288
314 315 315 313 314 316 317 319 322 322 321 322 323 321 320 322 321 316 317 320 318 317 316 312 310 307 304 302 300 298 297 296 295 295 294 293 292 292 292 292 292 293 293 293 294 294 294 294 294 294 295 295 295 294 295 295 295 295 295 295 295 296 296 296 296 296 296 296 295 295 295 295 295 295 295 295 295 294 294 294 293 293 292 292 291 291 291 290 290 290 289 289 289 289 288 288 288
313 317 314 314 316 317 317 319 320 321 322 323 324 322 321 322 321 318 320 319 314 313 313 308 304 302 300 298 297 296 294 294 294 293 293 293 292 291 291 292 292 292 292 293 293 293 294 294 294 294 294 294 294 294 294 295 295 295 295 295 295 295 295 295 296 296 295 295 295 295 295 295 295 295 295 295 294 294 294 294 294 293 292 292 291 291 290 289 289 289 288 288 288 288 287 287 287
309 311 311 313 314 315 317 317 318 321 322 323 324 323 323 323 321 318 317 315 311 311 309 304 300 298 297 296 295 294 294 293 292 292 293 292 291 291 291 291 291 291 292 292 292 292 293 293 293 293 294 294 294 294 294 294 294 294 294 295 295 295 295 295 295 295 295 295 295 295 295 295 295 295 294 294 294 294 294 294 294 293 293 292 291 290 290 289 289 288 288 288 287 287 287 287 287
312 312 314 315 314 316 318 317 317 320 321 322 323 323 324 323 319 316 314 311 309 307 304 299 297 296 295 294 294 293 293 292 292 292 292 292 291 291 291 291 291 291 291 291 291 292 292 292 292 292 293 293 293 293 293 293 293 293 293 294 294 294 294 294 295 295 295 295 295 295 295 295 295 294 294 294 293 293 293 293 293 293 293 292 291 291 290 289 289 288 288 287 287 287 286 286 286
318 317 319 320 319 319 321 321 319 318 318 321 322 322 323 323 320 316 310 304 301 301 300 297 295 294 293 293 293 292 292 292 292 291 291 291 291 290 290 290 290 290 290 290 291 291 291 291 291 291 292 292 292 292 292 292 292 292 292 293 293 293 293 294 294 294 294 294 295 295 295 295 294 294 294 293 293 293 293 293 293 292 292 292 291 291 290 289 289 288 287 287 286 286 286 286 285
Wind_Speed
2 2 2 2 3 2 2 4 1 2 2 1 2 1 3 2 1 2 4 3 2 2 2 1 4 4 2 2 5 4 3 6 5 3 2 4 3 10 25 20 13 25 32 31 29 27 24 23 22 21 20 19 18 17 17 16 16 15 15 14 14 13 13 12 11 11 11 11 11 11 11 11 12 12 11 10 10 9 9 9 9 8 8 8 8 8 8 7 6 4 3 2 1 2 2 3 4
2 2 2 1 3 1 1 3 1 2 3 2 2 2 2 2 1 4 5 4 3 1 1 1 2 2 1 1 1 1 4 6 4 2 2 4 4 11 27 21 15 26 33 32 30 28 25 24 23 21 20 19 19 18 17 16 16 15 15 14 14 13 13 13 12 12 12 12 12 12 12 12 12 12 11 10 9 8 8 9 8 8 8 8 8 8 7 5 5 5 4 2 2 2 1 2 3
2 2 2 1 3 3 1 3 1 1 2 2 4 3 1 1 4 5 6 6 5 2 2 0 1 3 1 3 1 2 4 3 3 2 3 5 4 9 27 23 17 27 32 33 31 29 27 25 24 22 20 19 19 18 18 17 16 16 15 14 14 13 13 13 13 13 13 13 13 13 13 13 13 11 10 9 9 8 8 8 8 8 8 8 9 8 6 6 6 5 4 4 3 1 1 2 3
2 3 3 0 2 3 3 3 1 2 1 2 3 3 2 4 5 5 6 6 4 1 1 2 1 2 3 5 3 1 5 4 4 5 2 5 6 8 27 24 19 30 32 32 32 30 28 26 25 23 21 20 20 19 18 17 16 16 15 15 15 14 14 14 14 14 14 14 14 13 13 12 12 11 10 9 8 8 8 7 7 8 8 8 8 6 5 7 7 5 5 4 4 4 4 4 5
2 4 4 2 2 1 3 2 2 2 3 3 1 4 4 6 4 5 5 6 4 2 2 2 1 1 2 4 2 1 4 3 2 8 3 3 7 9 27 25 23 32 32 32 31 30 29 27 26 24 22 20 19 18 18 17 16 16 16 16 16 16 16 16 15 15 14 14 13 12 12 11 11 10 9 9 8 7 8 7 7 7 7 7 7 6 6 8 8 7 7 6 7 7 7 7 7
1 4 7 5 3 1 3 1 2 2 4 4 2 5 4 4 5 5 6 6 2 4 3 1 1 1 1 3 3 4 3 1 1 7 6 3 6 11 27 26 26 34 32 32 30 29 29 27 27 25 23 21 19 18 18 17 17 16 16 17 16 16 16 16 15 14 14 13 13 12 11 10 10 10 9 8 8 7 8 8 8 8 7 7 7 6 6 9 9 8 8 8 8 8 8 8 8
2 1 5 5 2 2 2 2 3 3 4 5 3 6 5 3 4 3 6 4 0 2 1 1 1 1 3 2 2 7 7 6 2 3 5 4 5 13 27 26 27 34 33 32 30 29 28 27 27 26 24 22 20 19 19 17 17 16 17 17 16 15 15 14 14 13 13 13 13 11 11 10 10 10 9 9 9 8 8 9 9 9 8 8 8 7 7 8 7 7 8 7 7 7 7 7 7
4 1 1 3 1 3 2 1 3 3 3 3 3 6 8 5 3 3 4 2 1 2 0 3 1 1 3 1 2 5 6 11 8 4 5 6 6 14 27 26 28 34 33 33 31 29 28 27 27 26 25 23 21 20 20 18 17 17 17 16 15 15 15 14 14 13 12 13 12 11 11 10 10 10 10 9 9 8 9 10 10 9 9 9 9 8 8 7 7 7 7 7 6 6 6 5 5
5 3 0 3 1 2 1 2 3 3 4 4 4 7 9 6 3 3 4 3 3 1 2 4 2 3 3 2 4 5 5 10 13 10 6 7 8 15 25 26 28 34 34 33 31 30 29 27 27 26 25 24 23 21 20 19 18 18 18 16 16 16 15 15 14 14 13 13 12 12 12 12 11 11 10 10 10 10 10 10 10 10 9 10 10 9 8 7 7 7 6 6 5 5 4 3 3
5 4 1 2 2 1 3 2 2 3 5 4 5 9 9 5 3 3 4 4 3 1 2 1 2 4 2 2 6 5 4 7 11 13 9 8 9 16 23 25 27 32 34 33 32 31 29 28 27 26 25 24 23 22 22 20 19 19 18 18 18 17 16 16 15 14 14 14 14 14 14 13 12 12 12 12 12 12 12 11 10 10 10 11 10 9 9 8 7 7 6 5 4 3 2 1 0
3 4 2 3 2 1 3 3 3 4 5 4 6 9 7 3 2 2 3 4 3 2 2 3 2 4 1 3 4 4 6 6 9 12 10 9 10 16 22 24 26 30 33 33 32 31 29 29 28 27 26 24 23 24 24 23 21 19 19 19 19 19 18 17 16 16 16 16 16 15 14 13 13 14 13 13 13 13 13 13 12 12 13 12 11 10 9 8 7 6 5 4 4 4 3 2 2
2 2 3 3 2 2 3 2 4 6 6 4 4 4 2 4 3 2 3 3 2 2 4 5 2 3 1 3 3 5 7 7 8 10 11 10 11 16 21 24 26 28 31 32 32 31 30 29 28 28 27 26 25 24 25 24 24 22 20 19 19 19 19 18 18 17 17 17 17 16 15 14 14 15 14 14 14 14 13 14 14 14 14 12 11 11 10 9 7 6 5 4 4 3 3 3 3
2 2 4 2 2 2 2 2 4 5 6 3 4 2 2 4 4 5 5 2 2 1 5 7 2 2 3 4 3 6 5 6 7 10 11 10 11 16 22 24 26 28 29 30 31 31 31 30 29 29 28 27 27 26 25 24 25 24 21 20 19 19 20 20 19 18 18 18 18 17 17 16 16 16 16 15 15 14 14 15 15 14 14 13 12 11 11 9 8 6 5 4 3 3 3 3 3
2 3 3 2 0 1 2 2 2 1 4 4 3 1 1 3 4 4 4 1 5 4 3 4 4 2 3 2 4 5 2 4 6 11 11 10 13 17 22 25 26 28 29 30 30 31 31 31 30 29 29 28 28 27 25 24 24 24 23 22 21 20 21 20 20 19 19 19 18 18 18 18 18 17 16 16 15 15 15 15 15 14 13 13 12 12 11 10 9 7 6 5 4 3 2 2 3
3 2 3 3 1 1 2 3 1 2 4 5 3 0 0 4 3 3 4 3 6 4 1 2 5 2 2 3 4 4 2 4 6 11 11 12 14 18 22 25 27 28 29 30 30 31 31 32 31 31 30 30 29 28 26 24 25 24 23 23 22 22 22 21 21 20 20 20 19 20 20 20 19 18 17 16 16 15 16 16 15 14 14 14 13 12 11 10 9 8 7 6 5 4 3 2 2
3 3 4 1 1 1 3 3 2 2 5 5 2 1 1 5 3 2 4 3 4 2 1 3 5 2 3 6 6 3 2 4 7 11 12 13 15 18 21 24 26 27 29 30 31 32 32 32 32 32 31 31 30 29 27 26 26 25 24 24 24 23 23 22 22 21 21 21 21 21 22 21 20 19 18 17 17 17 17 16 16 16 16 15 14 12 11 10 9 8 7 5 4 3 2 1 1
2 3 4 0 2 2 3 4 4 3 5 5 4 1 1 5 1 2 2 2 4 3 2 4 3 4 6 5 4 3 4 4 9 12 13 14 15 17 19 23 25 27 30 32 32 32 32 32 33 32 32 32 31 30 29 28 28 26 25 25 25 24 24 24 23 23 22 22 22 22 22 22 20 20 19 18 19 19 18 17 17 17 17 15 14 13 12 10 9 8 7 5 4 2 1 0 1
3 3 2 1 3 4 6 7 7 4 3 5 3 2 2 5 4 1 1 1 4 5 6 5 4 9 11 11 9 6 6 7 11 13 15 15 15 16 19 23 27 29 32 33 34 34 34 34 33 33 33 32 32 31 31 30 29 28 27 27 26 26 25 26 25 25 24 24 24 23 23 22 21 21 21 21 21 20 19 18 18 18 17 15 14 13 12 11 10 8 6 5 3 2 2 1 1
3 3 2 3 5 5 6 7 6 4 4 5 5 2 3 5 3 0 2 5 4 6 9 3 5 13 13 15 16 12 9 10 13 16 17 18 20 22 22 24 27 30 32 36 38 37 36 36 35 35 34 33 33 32 32 31 30 29 29 29 28 27 27 28 28 27 26 26 25 24 24 23 22 22 22 22 21 20 20 19 18 18 17 16 15 14 12 11 9 8 6 5 4 4 3 3 2
2 3 2 6 7 5 5 7 8 8 4 3 7 2 2 5 3 1 2 5 5 7 11 6 7 12 11 12 14 13 12 13 16 18 19 22 25 27 27 26 29 34 37 39 38 38 38 38 37 36 35 34 34 33 33 33 31 29 29 29 29 29 29 30 30 29 28 27 26 25 24 24 23 23 23 23 21 21 21 21 20 19 18 17 16 15 13 11 9 8 7 6 6 5 5 4 3
2 4 5 6 4 3 7 8 9 7 3 4 5 4 5 4 2 2 3 3 7 10 11 11 13 13 11 9 9 12 11 13 17 19 21 23 25 28 29 31 33 35 36 35 36 39 41 40 39 38 37 36 35 35 35 35 32 30 30 30 30 31 31 32 31 30 29 28 27 26 25 25 25 25 25 24 23 23 24 23 22 21 20 18 17 15 13 11 9 9 8 8 7 7 6 5 5
2 4 6 5 4 3 7 7 7 5 3 3 3 5 7 2 1 5 6 4 9 10 10 12 14 12 11 9 6 8 9 11 14 18 22 24 26 28 30 32 32 30 29 32 37 40 41 42 41 39 39 37 37 36 36 35 33 31 32 33 32 33 33 33 33 31 30 28 28 27 26 26 26 26 26 26 25 25 25 25 24 21 19 18 16 14 12 12 11 10 10 9 9 8 7 7 6
2 5 5 5 6 6 5 3 5 5 4 4 4 5 3 2 5 5 9 11 14 15 13 12 12 10 10 8 5 6 9 10 12 19 26 27 27 30 33 34 33 32 32 34 37 38 39 42 42 41 40 40 39 37 37 36 34 33 33 34 34 35 35 35 34 32 31 30 29 29 28 28 28 28 28 27 27 27 26 25 23 21 19 17 16 15 14 13 12 12 11 11 10 9 8 8 7
3 4 4 6 6 8 7 3 3 5 6 7 2 6 8 8 6 2 8 13 16 20 18 12 11 9 7 7 7 9 11 12 16 25 29 29 32 34 34 34 35 34 33 35 36 36 39 41 43 43 42 41 40 39 38 38 37 35 34 35 35 36 36 36 35 34 32 31 30 30 29 29 29 29 30 29 28 28 27 26 23 21 19 18 17 16 15 15 14 13 13 12 11 10 9 8 8
5 7 5 3 3 7 7 4 4 6 7 5 1 7 16 13 4 5 11 13 16 21 18 10 9 8 7 10 12 11 10 12 17 23 25 29 32 30 30 32 31 31 34 37 37 38 39 40 42 44 45 43 42 41 40 40 39 38 37 37 38 38 38 37 36 35 34 33 32 31 31 30 30 30 31 31 30 29 28 26 24 22 21 20 19 18 16 16 15 15 14 13 12 11 10 9 9
7 8 5 3 5 7 5 5 7 7 6 4 3 12 18 10 1 9 16 15 18 19 15 9 7 10 10 11 13 11 11 12 16 19 22 27 27 26 31 31 30 34 39 39 38 39 39 39 41 44 46 45 43 43 42 43 42 41 41 41 40 40 39 38 37 36 35 34 33 33 32 32 31 31 32 32 31 30 28 27 25 24 23 22 21 19 18 17 16 16 15 14 13 12 11 10 9
4 5 5 6 7 8 3 6 7 4 5 7 8 14 16 5 3 9 13 10 12 11 11 9 5 11 12 10 11 9 9 14 19 17 17 20 21 28 34 31 33 40 38 36 39 40 39 39 41 43 45 46 45 45 45 45 44 44 43 43 43 42 41 40 39 38 37 36 34 33 33 33 33 32 33 32 32 31 29 28 27 26 25 24 22 21 20 18 17 16 14 13 13 12 12 11 10
2 2 6 8 6 9 5 6 8 4 4 8 11 11 13 4 2 14 15 5 5 7 10 11 8 11 11 9 9 6 8 17 19 14 14 19 23 30 33 33 38 40 37 40 42 39 39 41 42 42 44 45 47 48 48 47 47 46 45 45 45 44 43 42 41 40 39 37 35 35 35 35 35 34 34 34 33 31 30 29 28 28 26 25 24 23 21 20 18 16 15 15 14 13 13 12 11
1 3 5 8 7 10 8 6 5 6 4 6 9 4 9 5 9 20 14 4 5 7 11 13 11 11 9 9 8 6 10 15 14 14 21 27 30 31 33 36 38 37 39 41 38 37 41 42 42 42 43 45 48 49 49 49 49 47 47 47 47 46 45 44 43 42 40 39 37 36 36 36 37 36 35 35 34 32 31 31 30 29 28 27 26 24 23 21 20 19 18 17 16 15 14 13 12
2 2 1 6 7 8 7 2 2 4 5 7 7 3 7 9 16 20 7 5 5 6 10 13 11 8 7 8 8 8 10 11 13 20 29 32 32 32 34 37 35 35 37 35 35 38 41 41 41 42 42 45 47 49 49 49 50 49 49 48 48 48 47 46 46 44 42 40 39 38 38 38 38 38 37 36 35 34 33 32 32 31 30 28 27 26 24 23 22 21 20 19 18 17 15 14 13
2 1 1 2 2 6 6 2 5 2 4 7 6 5 8 11 17 17 3 3 5 7 11 12 10 8 7 8 8 9 10 11 16 24 30 31 32 32 33 35 32 34 34 33 37 40 40 40 41 42 43 45 46 48 49 50 50 50 50 49 49 49 48 48 47 46 44 42 41 40 40 40 40 39 38 37 36 35 35 34 33 32 31 30 29 27 26 24 23 22 21 20 19 18 16 15 14
2 2 3 1 3 6 9 3 7 7 4 5 6 4 8 11 16 14 3 3 4 7 11 10 10 10 9 9 8 10 11 13 17 23 30 32 31 32 33 33 32 33 34 35 38 37 37 39 40 42 43 45 46 47 48 49 49 48 49 49 49 49 49 49 49 47 46 44 43 42 42 42 42 41 40 39 38 37 36 36 35 34 33 32 30 29 27 26 24 23 22 21 20 19 18 16 15
2 2 5 5 5 3 6 8 6 8 3 2 7 6 6 8 11 11 4 1 4 7 12 13 13 12 12 11 10 10 12 13 15 21 29 28 27 30 31 32 31 32 34 35 35 35 37 38 39 41 43 44 46 46 47 47 47 47 47 47 47 48 49 50 49 48 47 46 46 44 44 44 43 42 42 41 40 39 37 37 36 35 34 33 32 30 28 27 25 24 24 22 21 19 19 18 16
3 2 4 5 6 4 3 7 6 2 5 5 7 8 9 11 11 11 11 9 9 11 15 15 14 14 14 12 11 12 11 13 16 20 20 17 20 24 26 30 31 31 32 33 34 36 37 37 39 41 42 43 43 44 45 45 45 43 43 43 44 46 47 48 48 48 48 48 47 46 45 45 45 44 44 43 41 40 38 38 38 37 36 34 33 31 30 28 27 26 25 24 22 20 20 19 17
6 5 5 3 4 5 5 6 5 4 4 5 4 9 14 14 13 14 15 12 11 16 17 14 15 16 15 12 12 12 11 14 16 16 15 14 18 21 21 25 27 28 30 32 33 34 36 36 38 40 41 42 42 42 42 41 40 40 41 41 41 43 45 46 47 48 49 49 48 47 47 46 46 46 45 44 43 42 40 39 39 38 37 35 34 33 31 30 29 28 26 25 24 22 19 18 16
7 5 4 5 5 5 6 8 6 4 8 8 9 15 15 13 14 14 15 11 10 17 17 15 15 14 13 13 13 13 13 14 12 14 16 16 18 20 20 22 23 26 27 29 31 32 35 36 37 38 40 41 40 39 38 38 39 38 39 39 41 44 44 45 47 48 49 50 50 48 48 48 47 47 46 46 45 43 42 41 40 39 38 37 36 35 34 33 32 31 29 27 26 23 20 19 17
1 2 4 6 7 8 8 9 8 1 4 9 10 18 18 13 13 13 15 12 11 16 19 18 17 13 12 13 16 15 13 11 9 11 13 13 16 17 18 20 21 22 24 27 29 32 35 36 37 38 40 40 40 41 41 41 42 41 40 43 46 46 45 46 47 49 51 51 51 50 50 49 48 48 48 47 46 45 43 42 41 40 39 38 38 37 35 34 33 32 30 28 26 24 23 21 18
4 5 6 6 5 10 10 8 8 1 2 6 6 16 20 13 12 12 14 15 15 17 17 19 19 15 13 15 18 15 9 6 6 7 10 12 13 14 15 17 19 21 23 25 28 31 33 35 37 38 38 39 42 44 44 45 46 46 45 47 47 45 45 47 49 51 51 50 50 50 50 50 50 50 50 49 48 46 45 43 42 41 40 39 38 36 35 35 34 33 32 30 27 25 23 22 22
7 4 5 6 4 8 9 5 6 1 2 6 6 14 17 13 15 16 18 19 16 13 13 17 19 15 16 17 15 10 8 8 7 7 8 11 13 13 13 15 18 21 23 23 26 28 30 33 35 36 36 39 42 44 44 45 46 46 44 42 42 40 40 44 45 45 46 46 47 48 49 50 50 51 50 49 48 47 46 44 43 42 41 41 39 38 37 37 36 35 34 32 29 25 22 23 25
6 5 4 6 3 4 6 4 5 3 3 6 9 14 15 12 14 16 16 14 11 11 13 15 15 16 19 17 10 8 8 10 10 8 7 10 13 13 13 14 17 18 20 22 23 26 28 32 34 35 36 38 40 42 43 43 40 39 38 35 33 33 34 36 37 38 40 42 43 45 47 49 50 50 50 49 49 48 46 45 44 43 43 42 41 41 41 40 39 38 37 34 31 28 24 24 27
6 6 5 8 8 8 9 5 6 6 4 3 6 12 11 5 6 8 6 4 7 11 11 12 16 18 15 12 8 5 5 7 8 7 8 9 10 12 14 15 15 16 17 19 21 23 26 29 32 34 35 36 38 39 40 38 35 33 32 28 25 26 27 28 33 37 37 39 42 45 46 47 48 49 50 50 49 49 47 46 45 44 43 42 42 42 43 42 41 40 39 37 35 32 28 25 27
6 5 10 13 13 11 11 8 7 5 4 3 5 7 7 1 2 5 4 3 6 6 7 14 18 13 7 8 6 5 6 4 2 5 7 7 8 13 17 17 15 14 14 15 17 20 23 25 27 29 31 33 34 35 36 35 34 32 32 30 26 27 28 31 38 41 39 41 44 44 45 46 47 48 49 49 49 49 48 47 46 45 44 43 43 43 43 42 42 41 40 40 38 34 30 26 27
7 5 10 13 11 9 10 7 4 1 4 3 3 1 8 3 2 6 4 4 9 7 10 16 12 6 6 6 5 8 6 3 3 5 5 5 7 9 14 16 16 14 14 14 14 15 18 21 23 25 28 30 31 31 33 34 34 33 33 34 31 31 32 35 38 36 37 42 43 42 45 47 48 48 49 49 49 48 48 47 46 46 45 44 44 44 43 43 43 42 41 41 39 35 32 29 29
5 5 6 7 8 8 6 3 3 4 3 4 0 3 7 8 3 4 2 3 9 12 13 11 6 7 9 7 6 7 4 1 4 5 5 5 6 7 11 15 17 17 18 17 14 12 13 15 18 21 24 27 28 29 31 33 35 34 34 34 32 33 33 29 27 28 32 36 38 40 42 44 46 47 48 48 48 48 48 47 47 46 46 45 45 45 45 44 44 43 42 42 40 38 36 32 31
6 3 5 5 5 5 4 4 4 2 3 4 2 4 3 9 5 1 2 3 8 13 11 7 6 6 9 6 7 6 1 3 5 4 5 5 6 8 11 15 19 21 21 20 17 13 10 11 14 18 21 24 26 28 29 33 34 33 33 34 33 33 32 27 24 27 30 32 35 37 38 41 44 45 46 47 48 48 48 48 47 47 47 46 46 45 45 45 45 45 44 44 42 41 39 35 32
4 5 5 4 4 3 3 3 3 2 3 4 4 5 3 9 5 4 2 3 6 8 7 5 5 7 8 2 6 5 1 3 3 4 4 5 8 10 13 19 22 22 20 20 18 15 12 10 10 14 19 22 25 27 29 32 35 34 34 35 35 33 31 28 26 26 29 31 34 36 37 39 40 42 45 45 46 47 48 48 48 48 48 47 47 46 46 47 47 46 46 45 45 44 42 38 35
3 5 4 5 4 4 3 1 3 1 6 5 9 10 5 6 5 3 3 4 5 4 3 4 4 6 7 3 6 4 3 5 5 5 6 7 11 17 23 25 26 25 23 21 20 17 15 13 10 11 15 19 23 25 28 31 34 36 37 36 36 34 30 28 28 27 28 31 33 36 37 38 39 42 43 44 45 46 47 47 47 48 47 47 47 47 48 48 47 47 46 45 45 45 44 41 38
3 3 3 3 3 4 4 4 3 1 6 4 8 10 8 7 5 2 4 5 5 4 2 4 5 7 7 4 8 4 4 5 6 7 8 8 12 18 24 25 26 27 27 26 24 20 18 15 13 12 13 16 20 23 26 30 32 36 38 36 35 34 31 30 31 30 30 32 33 34 34 36 37 39 40 42 44 45 46 47 47 47 48 48 48 48 47 47 46 46 46 46 46 45 45 43 41
4 3 2 2 4 3 2 2 1 3 6 4 3 3 5 8 5 3 8 9 8 8 6 6 6 9 8 4 8 3 4 4 6 7 8 10 10 11 16 21 23 25 28 28 27 24 20 17 14 13 14 15 18 21 24 27 30 33 34 34 34 34 32 32 32 31 31 32 32 32 32 34 35 37 39 43 46 47 47 48 49 49 49 49 49 48 47 47 46 46 46 46 46 46 46 45 44
5 4 4 3 1 2 3 3 2 4 5 4 1 2 4 6 3 7 14 13 7 4 6 7 5 7 8 4 5 2 4 5 7 8 9 10 9 11 16 20 20 22 27 29 28 26 23 20 17 15 16 15 15 18 21 24 28 30 31 32 33 32 31 32 31 30 30 31 31 31 32 34 36 38 42 45 46 47 48 49 50 50 50 49 49 49 48 47 47 47 47 47 47 47 46 45 45
6 5 5 4 4 4 4 4 4 6 4 3 1 3 3 2 3 7 10 7 6 3 4 5 4 5 3 5 5 5 7 8 9 10 11 11 12 15 18 19 21 24 29 30 30 29 26 24 21 18 18 15 13 15 18 21 25 27 28 30 30 29 29 30 30 30 29 30 30 30 31 33 36 38 40 41 42 44 46 48 48 49 50 49 49 49 48 48 48 48 48 47 47 47 46 46 45
3 3 3 3 4 5 4 4 4 2 2 3 2 4 4 4 6 9 5 4 6 6 7 5 5 5 7 8 8 9 10 10 9 10 11 11 13 15 16 19 24 29 31 31 31 30 28 26 24 22 20 18 14 12 14 18 21 23 25 26 27 28 28 28 29 30 30 30 30 30 32 33 35 36 37 37 38 40 43 44 46 47 48 48 49 49 49 49 49 49 49 48 48 48 47 47 46
1 3 2 3 2 5 3 5 1 2 4 6 3 5 7 4 7 6 1 3 5 7 8 6 6 7 10 9 9 10 10 10 9 9 9 10 12 16 19 22 25 27 29 31 33 32 29 27 27 26 25 23 19 15 13 15 18 20 22 23 24 25 26 28 28 29 29 28 28 29 31 33 35 36 36 36 37 38 40 42 43 44 45 45 46 47 48 48 49 49 50 50 50 49 48 48 48
5 3 4 1 1 3 2 2 1 0 7 5 3 9 10 6 5 3 6 7 7 8 9 9 10 10 10 9 10 10 10 9 10 10 10 10 13 18 21 22 23 24 25 28 31 33 35 35 33 31 30 28 25 21 18 16 16 18 20 21 23 25 26 28 29 28 27 27 28 29 30 33 35 36 37 37 38 39 40 41 42 43 44 44 45 45 46 46 47 48 48 48 49 48 48 48 48
4 3 1 2 2 2 1 2 2 4 6 3 4 9 8 5 6 5 5 3 5 8 9 11 12 12 10 10 11 11 10 9 9 10 9 9 12 16 19 20 23 25 26 27 29 33 36 37 37 36 34 33 32 29 24 20 18 17 19 20 23 25 27 29 30 30 29 29 30 30 31 33 35 36 37 37 38 39 40 41 43 44 44 44 44 44 44 44 45 45 46 46 45 46 46 47 47
1 1 1 1 2 2 1 2 1 2 5 4 4 5 5 6 4 0 1 2 5 6 8 11 11 11 10 9 9 9 8 8 8 8 7 7 10 14 16 18 20 23 26 28 30 32 33 33 35 37 37 38 38 35 31 27 22 19 19 20 21 25 27 29 30 31 31 32 33 32 33 34 35 36 37 37 38 39 40 42 43 44 45 45 45 44 44 44 44 45 45 46 45 45 45 46 46
3 2 2 1 1 0 1 2 1 2 4 4 4 5 6 5 1 6 5 8 9 7 9 10 9 10 9 9 9 7 7 7 6 6 6 6 8 12 16 17 19 22 25 27 28 29 31 33 36 37 38 40 40 38 35 31 27 23 22 21 21 23 25 28 29 29 31 32 33 34 34 35 35 36 37 38 39 39 40 41 42 44 45 46 46 46 45 44 45 45 45 45 45 45 46 46 45
3 4 4 4 4 3 4 5 3 3 3 4 5 7 6 5 3 3 8 11 10 9 10 9 8 9 8 8 8 7 7 8 7 6 6 6 8 12 15 18 21 23 26 28 29 31 35 37 38 38 38 38 37 36 34 33 31 28 26 24 23 22 23 25 26 28 29 31 32 34 35 35 35 36 37 38 39 39 39 40 42 43 45 46 46 47 47 46 47 47 46 44 44 45 47 46 45
Wind_Direction
326 330 334 327 310 278 336 42 71 326 69 294 285 250 261 248 302 289 279 280 278 248 206 231 159 158 136 171 206 201 193 180 176 157 214 241 236 191 179 180 181 176 177 176 175 176 178 175 174 179 181 182 184 184 184 184 182 182 181 179 178 176 172 173 174 171 172 169 167 167 166 161 154 151 145 141 144 141 140 144 140 134 136 135 132 131 130 136 148 153 157 205 205 126 87 62 46
346 343 349 15 9 7 241 59 98 332 38 308 277 190 268 321 306 245 242 242 231 267 316 241 200 266 357 127 194 202 246 213 196 185 260 261 255 200 182 180 181 178 178 177 175 177 178 175 175 178 181 182 184 185 185 186 185 185 184 181 180 178 174 175 176 174 176 175 172 169 166 159 154 149 143 141 143 140 134 138 135 128 132 134 131 127 131 150 158 155 158 192 199 141 82 16 2
355 345 352 346 14 38 87 40 101 16 35 292 281 228 259 270 230 233 234 241 242 291 331 158 220 283 246 284 279 175 264 256 224 210 278 243 236 204 184 180 177 178 179 178 177 179 179 176 175 176 179 182 183 185 185 187 186 186 184 183 181 179 177 177 178 179 179 175 172 169 164 158 154 150 147 149 148 143 137 138 135 132 133 133 137 133 138 175 181 173 180 191 196 199 307 317 318
22 3 353 348 32 31 64 36 115 132 208 250 281 254 221 214 232 248 251 256 260 284 294 136 184 243 186 247 263 236 266 264 220 188 259 223 213 202 185 180 172 176 179 180 179 180 180 177 175 175 178 180 182 184 185 186 185 184 182 182 182 181 181 181 181 180 177 174 172 167 164 160 157 155 156 158 153 146 146 148 143 145 149 145 155 151 143 181 196 203 209 211 238 274 285 287 291
48 31 16 86 96 38 93 57 92 128 215 191 258 265 227 219 245 270 272 278 262 196 186 139 238 297 176 229 213 243 253 261 240 198 234 237 221 201 183 180 172 176 180 181 181 181 181 178 176 175 178 179 181 183 184 184 182 183 182 182 184 184 185 184 183 181 175 173 172 169 166 165 165 164 161 160 161 156 155 164 164 165 168 164 170 162 162 195 209 220 228 240 261 274 277 278 278
78 52 41 70 92 100 122 138 162 207 229 173 219 267 247 223 240 272 291 298 263 188 186 120 261 329 270 253 211 219 232 280 353 200 221 247 230 194 182 181 175 178 181 182 183 183 181 178 177 176 178 179 180 182 183 183 183 184 183 183 185 185 188 184 180 180 175 173 173 173 170 170 175 177 177 179 183 174 164 172 178 178 175 172 166 162 188 215 223 230 238 249 260 268 270 270 270
85 58 30 66 68 37 113 195 200 242 244 178 201 269 286 251 218 293 316 329 351 199 184 259 234 39 260 285 266 240 233 228 233 193 212 229 227 186 183 183 179 180 182 184 184 183 182 180 179 178 180 179 178 182 183 183 184 186 185 184 184 184 185 183 181 180 177 179 180 179 178 178 182 187 193 197 199 188 171 176 183 185 180 169 162 174 211 227 231 236 242 249 254 258 260 262 265
67 75 349 89 62 16 98 246 242 222 250 220 220 254 277 269 212 289 302 325 280 240 179 257 206 176 268 353 277 255 246 234 234 237 219 224 214 183 186 187 183 183 184 185 185 185 184 184 184 182 184 181 180 188 188 186 186 188 189 187 187 188 188 187 187 188 187 189 189 188 188 190 198 205 206 201 198 191 177 177 183 185 176 171 182 202 220 226 228 234 238 244 250 253 256 259 265
55 47 169 83 103 11 36 296 275 233 255 260 252 251 268 271 225 252 262 279 276 237 239 245 172 204 294 356 260 279 284 244 232 235 227 218 208 187 190 192 189 185 185 187 186 187 187 188 190 189 189 186 187 192 193 192 194 194 193 192 195 197 201 202 195 195 196 198 200 200 200 202 210 214 208 197 190 186 179 179 181 178 174 187 204 212 217 220 224 228 232 237 243 247 250 255 266
40 25 147 80 100 337 323 283 270 253 249 252 267 261 266 265 219 226 238 270 260 210 264 198 157 233 305 305 265 284 273 249 230 227 225 212 201 193 195 196 194 189 188 189 189 191 191 193 195 195 194 193 192 193 194 193 195 197 196 198 202 201 207 211 204 204 206 209 211 208 208 211 209 205 200 192 185 182 178 178 176 178 190 206 212 211 214 217 220 226 225 221 217 216 214 205 135
39 0 105 81 75 295 274 254 268 267 270 290 283 263 258 237 201 219 226 275 245 226 268 126 175 225 274 283 260 259 252 263 240 224 221 212 201 196 197 197 196 194 192 192 193 195 196 197 200 200 200 198 195 195 198 196 194 196 200 202 205 204 205 209 208 209 209 210 212 208 208 207 199 193 193 190 186 184 180 181 183 194 207 213 211 210 212 212 214 211 199 184 174 163 151 130 105
86 335 65 95 159 209 228 243 269 278 295 302 272 260 218 155 158 209 205 251 232 264 247 182 195 167 158 277 255 272 268 268 250 225 219 211 204 198 198 198 196 196 196 196 197 198 200 201 203 204 204 203 199 200 202 202 200 201 204 205 205 206 205 207 209 208 207 206 206 203 201 199 193 189 189 189 190 187 188 195 200 207 211 210 208 206 203 203 200 187 173 162 152 136 121 103 89
123 151 91 130 185 172 180 233 271 301 307 263 237 250 132 147 185 208 181 213 210 292 256 205 172 122 214 262 279 302 284 265 243 217 217 210 204 198 197 199 198 197 198 200 201 201 202 204 205 207 208 207 205 207 209 207 204 204 205 206 206 207 204 204 206 205 203 202 201 198 195 195 192 190 189 190 194 194 199 206 207 209 209 206 202 196 193 191 185 175 168 157 142 115 91 69 55
141 151 116 142 90 135 170 262 284 317 284 253 254 265 153 203 207 187 149 244 242 204 250 206 150 155 246 273 306 300 265 272 234 209 211 206 202 197 197 199 200 199 200 203 204 205 205 206 207 209 210 210 211 212 215 210 204 204 205 205 206 206 204 201 202 202 199 197 196 195 194 194 192 191 190 193 200 199 201 205 205 204 202 199 194 188 187 183 178 173 168 160 149 131 104 71 42
133 134 91 117 61 331 199 248 205 140 257 252 250 146 339 252 166 145 181 219 256 211 258 226 165 194 208 197 260 251 242 289 221 204 204 201 199 197 198 199 201 201 202 205 207 208 209 210 210 211 213 212 214 214 214 210 204 205 204 203 205 206 204 200 200 201 199 196 195 195 197 196 193 193 193 197 199 196 197 197 194 193 191 191 190 186 183 178 174 170 167 161 152 143 124 96 50
116 115 70 100 201 270 216 217 145 138 250 241 245 112 350 278 149 176 227 187 279 272 234 215 184 223 186 192 231 221 280 280 204 199 198 196 195 195 198 200 203 204 206 208 209 211 211 213 213 213 214 213 213 213 213 209 204 206 205 203 204 206 204 201 202 203 201 198 197 199 201 200 197 196 197 197 195 194 195 190 183 184 189 190 188 184 181 177 173 169 166 160 152 142 123 99 44
78 85 77 1 205 209 202 195 182 184 252 266 289 161 144 295 252 242 255 141 265 274 254 235 212 232 210 213 239 251 281 236 193 192 187 189 190 192 199 202 205 207 209 211 211 213 213 214 215 214 214 213 212 211 211 208 204 204 204 203 204 206 205 204 204 204 204 202 201 202 203 203 200 199 199 198 197 197 195 189 182 184 191 191 186 183 180 177 174 172 167 161 155 148 139 134 323
64 86 119 227 200 201 189 189 199 189 254 265 271 160 165 290 287 272 332 297 281 285 270 254 267 255 241 252 263 269 258 210 192 188 183 185 188 191 201 205 207 210 211 212 213 213 214 214 214 214 214 213 211 210 210 208 206 204 204 204 205 206 205 206 207 206 206 205 204 205 206 205 203 202 201 199 200 198 194 191 185 187 193 191 186 184 181 179 176 173 169 168 169 178 198 218 253
91 120 154 228 203 211 198 186 194 201 228 254 273 211 198 257 259 62 258 277 314 296 276 240 255 263 259 257 254 252 235 209 199 193 190 190 193 198 204 207 208 212 213 213 214 213 213 214 214 214 214 213 212 211 210 209 208 205 204 205 205 206 207 208 208 209 208 207 208 208 209 208 207 206 203 203 203 197 193 192 188 189 194 192 188 186 184 182 179 176 175 180 185 190 203 211 223
157 137 193 239 215 224 232 206 206 221 228 276 285 270 224 243 218 153 223 276 297 263 264 253 247 257 258 252 243 238 224 212 206 200 203 203 204 206 206 208 210 215 216 215 215 214 214 215 215 215 215 214 213 212 211 211 210 206 205 205 205 206 208 209 210 210 211 211 212 212 212 211 210 208 206 205 202 196 192 191 190 193 195 193 191 190 188 186 182 183 184 186 191 193 198 202 205
172 156 203 233 194 219 240 219 217 230 224 244 280 322 291 260 179 191 173 282 283 251 249 243 246 252 254 255 235 223 215 212 210 209 213 213 214 215 215 216 218 221 219 217 217 216 215 215 215 215 215 215 215 214 213 214 211 208 207 206 206 207 209 210 210 211 213 214 215 215 214 213 211 209 207 205 202 196 193 192 194 197 197 195 195 195 192 187 186 187 190 188 189 190 190 192 194
172 212 229 221 155 228 245 217 219 211 172 223 270 299 282 285 180 198 171 216 256 257 251 233 239 245 247 255 230 209 212 216 214 215 219 220 221 221 223 224 224 225 221 220 220 219 217 216 216 215 216 215 216 216 216 216 212 208 209 208 207 208 210 211 211 213 214 216 216 216 215 213 211 209 207 205 202 198 197 197 199 201 199 198 196 196 192 188 190 189 190 190 187 187 186 187 190
229 251 259 239 193 228 250 195 201 171 155 209 223 279 290 321 280 211 176 217 245 258 260 246 247 243 241 250 210 199 215 218 218 221 222 222 223 224 225 226 226 226 224 225 224 222 220 217 217 216 217 216 216 218 217 218 215 211 210 209 209 209 211 212 213 214 215 216 217 216 215 213 211 209 208 206 204 201 201 202 202 203 200 199 196 194 194 191 192 192 190 189 186 185 184 187 189
248 256 259 250 215 226 244 215 194 183 213 232 231 318 289 261 275 227 191 220 245 259 260 255 261 256 243 244 225 221 223 221 228 230 228 227 229 230 230 229 229 228 226 227 227 225 224 220 218 217 218 217 217 218 217 219 218 214 212 212 212 212 213 214 215 216 216 217 217 217 216 214 212 210 209 207 206 204 204 204 204 203 200 200 198 196 198 196 193 193 191 188 186 185 185 187 188
220 233 240 244 228 236 254 258 242 242 244 241 286 286 270 258 253 272 246 229 240 255 261 260 265 268 249 245 244 240 234 232 238 240 237 235 236 237 237 234 232 230 229 230 228 227 227 224 221 219 219 218 218 218 217 218 219 217 214 213 214 214 215 216 217 217 217 217 217 217 216 215 213 211 210 208 207 206 205 205 205 204 200 200 200 198 199 201 196 192 190 187 186 185 185 187 187
216 218 244 260 269 266 272 266 241 244 245 174 185 259 266 272 248 263 253 232 237 251 267 270 262 264 251 246 248 241 240 238 241 243 242 242 240 240 241 237 231 232 233 231 229 228 228 226 224 222 220 220 219 218 219 218 218 218 217 216 216 216 217 218 218 218 218 218 217 217 216 215 214 213 211 209 208 207 206 205 204 203 201 200 202 200 199 202 200 193 189 187 186 185 186 186 186
192 198 266 259 270 281 258 258 248 240 256 181 192 253 265 295 56 261 249 222 234 248 269 271 249 256 251 246 248 240 238 240 240 242 248 247 238 237 240 235 231 234 234 231 231 230 227 227 227 225 222 221 219 220 220 219 218 218 219 218 218 218 218 218 219 219 219 219 219 218 217 215 215 214 213 212 210 208 206 205 204 203 202 201 202 201 199 200 199 195 190 188 187 186 186 186 185
123 147 295 277 293 294 230 243 259 224 260 197 188 252 276 317 119 248 253 209 208 236 267 271 250 254 256 252 252 241 237 243 242 235 238 239 234 234 235 233 233 234 232 232 233 229 228 229 228 226 224 222 221 221 220 220 220 219 219 219 220 220 219 219 219 219 220 220 219 218 217 215 215 215 214 214 211 209 207 205 204 204 203 202 201 202 201 198 195 194 191 189 189 188 188 187 184
78 78 310 294 336 306 245 234 244 182 218 184 161 256 285 258 227 250 256 165 187 238 264 269 258 256 263 262 256 244 243 247 240 228 233 238 238 236 236 239 237 234 235 235 233 229 230 230 227 227 225 223 222 223 221 220 221 220 220 221 221 220 219 219 219 220 220 220 219 218 218 216 215 215 214 214 212 211 208 206 205 205 204 203 202 202 201 198 194 193 192 191 190 188 189 188 185
282 71 311 300 341 307 262 205 119 157 198 170 152 252 268 248 248 257 261 142 193 239 255 263 266 263 263 264 261 253 247 242 232 232 237 240 241 239 240 245 241 237 238 235 232 233 233 229 227 227 224 224 223 223 221 221 222 221 222 222 221 221 220 220 220 221 221 220 219 218 218 217 216 216 215 214 213 211 209 208 207 206 205 204 204 203 202 199 196 195 194 192 190 189 188 187 187
294 299 256 322 303 283 292 130 129 198 214 159 162 247 254 259 262 264 297 128 207 242 258 263 270 268 260 259 260 262 256 241 238 242 245 246 245 243 243 245 243 241 239 235 236 237 234 230 228 226 225 225 224 222 222 222 223 222 222 222 222 222 221 221 221 220 221 221 220 219 218 217 217 216 215 215 213 211 210 209 208 207 206 205 205 205 203 200 198 197 196 193 190 188 188 187 188
16 286 278 285 210 268 305 277 179 223 262 139 172 234 253 259 266 271 330 81 200 242 263 267 270 272 268 262 257 264 267 262 255 254 254 251 247 247 247 247 244 242 240 238 239 236 234 231 229 227 226 225 224 224 224 222 222 222 223 223 223 222 221 221 221 220 221 221 221 219 218 217 217 216 216 216 214 212 211 210 209 208 207 206 206 205 203 201 199 197 196 196 193 189 188 188 190
329 227 247 250 234 269 318 296 231 210 208 179 213 231 258 257 266 279 302 291 238 253 268 271 273 273 268 266 264 263 269 277 272 261 258 256 252 251 252 253 250 245 244 241 238 235 233 232 229 228 227 226 226 224 223 222 222 222 222 222 222 222 221 221 221 221 222 222 221 220 218 217 217 217 217 216 215 214 212 211 210 209 208 208 207 206 204 202 200 198 196 196 197 194 191 190 189
274 227 236 243 246 256 300 295 294 192 172 208 236 239 248 259 275 290 292 288 285 275 272 273 273 274 270 268 267 263 264 269 267 263 267 270 265 260 257 258 256 251 247 244 240 237 235 233 230 229 228 227 226 224 223 221 221 221 222 222 223 223 222 222 221 221 222 222 222 221 219 218 218 218 217 216 216 215 214 212 211 209 208 208 207 206 204 202 201 201 199 196 196 197 195 193 190
234 234 249 272 259 247 250 262 300 332 239 218 252 255 251 262 274 281 281 283 285 278 276 274 271 272 274 275 270 266 260 257 261 274 288 287 276 271 264 260 257 254 250 245 242 238 235 233 231 230 228 226 225 224 221 219 219 219 220 221 223 223 223 222 221 222 222 223 223 222 220 219 219 218 217 217 216 215 214 213 211 209 208 208 207 206 204 202 201 201 200 198 196 195 197 195 189
230 224 242 273 276 248 231 245 263 304 284 267 265 266 262 264 267 273 276 274 272 277 282 278 271 271 274 276 272 267 262 259 269 288 291 283 277 275 270 265 261 256 252 247 241 236 233 231 228 227 226 224 222 219 217 215 214 215 217 219 221 222 222 222 222 223 223 224 223 222 221 220 219 219 218 218 216 216 215 213 211 209 209 209 208 207 206 205 203 201 200 201 199 195 193 191 187
278 235 254 259 268 267 251 260 265 178 281 269 256 270 275 270 267 269 275 275 268 270 274 274 274 277 276 273 270 269 267 270 288 299 300 299 291 283 275 270 263 256 250 244 239 235 233 229 225 224 224 221 217 215 213 211 210 210 212 215 218 220 220 221 222 223 224 224 224 222 222 220 219 219 219 218 217 216 215 213 211 209 209 210 211 211 210 208 206 203 201 202 203 198 191 187 184
273 250 271 265 249 268 265 265 273 206 249 262 248 273 277 273 270 266 268 269 259 256 263 272 276 278 277 272 270 275 283 291 310 335 347 338 315 297 283 270 259 253 250 244 239 238 235 229 226 225 222 218 217 216 213 211 211 211 212 215 217 218 218 219 221 222 223 223 223 221 221 220 219 220 220 218 217 216 215 213 211 211 211 211 211 212 211 209 207 205 203 201 201 199 195 189 183
251 247 278 276 252 277 277 262 286 334 225 275 286 279 277 273 263 253 250 253 256 258 256 263 271 274 272 268 273 291 308 309 332 16 8 337 318 307 293 277 264 258 256 250 245 242 236 230 228 225 222 219 218 216 214 214 214 214 214 216 216 215 219 220 221 223 222 222 221 221 220 219 219 219 219 218 217 216 216 214 213 213 212 212 211 210 210 210 208 207 206 204 200 196 195 193 188
231 221 255 272 262 277 275 271 322 335 238 277 296 287 282 270 255 249 248 252 262 266 254 255 264 261 259 266 284 303 306 318 343 2 339 314 312 311 303 292 283 271 264 258 251 244 237 233 230 226 224 222 219 217 216 216 215 214 214 216 217 216 219 222 221 224 224 222 221 221 220 219 219 219 219 218 217 217 217 216 216 214 214 213 213 212 210 210 210 209 207 206 202 195 194 193 193
228 206 222 258 259 250 255 283 339 321 279 304 314 297 288 257 244 262 277 279 259 256 260 263 259 253 258 278 293 312 331 348 354 333 310 306 313 320 321 315 302 286 278 274 266 254 246 241 236 231 227 224 221 219 217 215 213 212 209 212 215 214 217 219 218 221 221 221 221 221 220 220 219 219 219 219 219 219 218 217 217 216 215 214 214 214 214 213 212 211 209 208 206 202 197 194 195
263 213 211 237 253 256 262 292 346 341 307 344 3 320 299 56 103 274 301 314 264 251 255 251 250 258 283 291 304 27 32 20 342 287 292 307 322 330 334 331 316 300 302 302 288 272 259 250 244 236 231 227 224 221 216 213 211 208 204 203 203 202 207 212 215 216 216 218 220 221 221 220 220 220 220 220 219 219 218 218 217 217 216 216 215 216 216 215 213 213 212 211 209 208 203 197 196
288 238 210 225 243 255 264 285 331 291 258 302 43 343 286 301 143 245 263 272 273 263 242 246 256 308 320 297 349 36 35 18 303 280 296 311 322 331 329 331 328 324 330 326 310 293 275 260 251 242 236 231 227 222 217 212 210 209 207 207 207 206 210 216 219 218 217 218 219 220 221 220 220 220 220 220 219 219 219 218 218 218 218 218 217 216 216 217 217 216 215 214 212 210 207 203 201
269 238 192 199 221 237 236 230 228 238 281 307 100 154 276 286 239 249 250 217 264 263 252 265 315 334 306 313 37 56 47 14 268 294 337 323 324 331 322 332 343 347 348 343 335 321 298 276 259 248 241 235 229 224 218 213 211 211 211 213 216 218 220 224 225 222 221 220 218 219 220 219 219 219 219 219 219 219 219 219 219 218 218 218 217 217 218 219 219 217 216 216 214 211 211 210 207
249 205 144 159 193 211 174 169 209 254 343 305 246 149 253 280 264 15 29 205 250 259 260 292 324 303 292 321 60 78 64 244 253 314 351 326 322 326 327 343 357 1 358 353 350 342 325 299 272 254 244 236 230 225 220 216 214 214 214 216 219 223 225 229 231 227 224 221 219 219 219 219 219 218 218 219 219 218 219 219 219 218 218 219 218 219 220 220 219 218 217 216 215 214 214 213 212
222 137 101 80 81 80 99 139 146 69 308 257 209 174 233 282 274 96 63 256 251 262 271 286 288 277 275 315 79 92 300 289 296 331 340 329 331 341 355 4 9 11 6 0 357 352 344 324 289 263 248 239 232 226 221 218 215 215 217 219 221 224 225 226 229 228 223 220 219 218 218 218 218 217 217 219 219 219 219 219 219 219 220 220 220 220 220 219 219 220 220 220 218 217 215 213 215
139 113 65 36 39 44 52 52 90 57 284 230 188 189 194 281 286 140 177 234 224 245 291 307 316 301 291 1 78 83 10 354 352 0 349 345 356 6 12 12 11 14 13 9 5 357 349 336 312 281 258 244 235 229 224 221 217 216 219 220 222 224 224 224 225 225 221 218 217 217 217 217 218 218 218 217 219 219 219 219 220 220 221 221 221 221 220 220 221 221 221 221 220 219 217 215 215
105 87 56 8 339 16 25 357 48 180 266 236 192 192 191 235 263 234 243 247 224 223 273 313 326 308 297 41 76 57 10 351 353 7 353 351 6 10 12 9 6 10 14 12 8 1 353 341 324 302 279 256 241 234 228 225 222 220 221 221 223 225 225 224 224 224 221 218 218 217 217 216 217 218 217 217 218 219 219 219 219 220 220 220 221 221 221 222 222 221 221 221 221 220 219 218 216
84 91 92 327 318 348 344 321 70 220 260 265 206 189 221 242 250 253 263 266 245 217 215 251 283 289 293 39 75 30 332 340 4 13 360 358 2 3 8 4 0 6 12 13 11 5 355 345 332 312 297 276 254 243 235 230 227 226 225 224 225 225 225 226 227 226 225 223 221 218 216 215 215 216 217 218 220 219 219 219 219 219 220 221 221 222 222 222 222 221 222 222 222 222 221 220 219
148 154 156 170 221 283 272 253 265 267 275 295 252 197 262 281 276 231 244 264 267 215 220 250 266 275 293 11 61 356 334 4 15 19 16 9 0 0 3 357 358 9 15 17 16 11 3 354 343 325 313 297 270 254 245 238 235 232 230 230 230 229 227 228 230 230 229 228 225 222 220 219 218 219 220 222 222 221 220 220 220 221 221 221 222 222 222 222 222 222 223 223 223 223 223 222 222
182 162 142 166 185 215 244 237 258 270 285 314 273 202 220 257 277 235 233 275 318 324 285 277 265 266 313 29 35 19 22 25 19 20 24 21 14 9 1 356 4 16 20 21 20 18 15 7 357 345 333 320 297 274 259 250 245 240 237 236 235 235 234 233 233 234 234 233 230 227 225 225 225 225 225 225 224 222 222 221 221 221 222 221 221 221 221 221 222 222 223 224 224 224 224 223 223
214 125 119 209 194 193 246 251 230 240 293 284 224 230 232 209 265 272 259 308 331 324 308 297 295 332 33 45 34 26 26 27 23 25 28 26 23 16 8 10 16 20 21 23 23 22 22 19 14 7 356 344 330 307 283 267 259 252 248 244 242 242 241 239 238 237 237 236 235 232 230 230 231 231 230 229 227 225 225 223 222 223 222 222 221 221 221 221 221 221 222 222 223 223 223 223 223
162 117 186 239 165 154 237 269 270 88 258 254 215 249 276 287 285 283 74 40 352 340 341 345 346 20 46 47 39 31 25 27 25 27 29 25 22 18 18 20 21 22 22 23 24 25 26 26 25 22 17 9 356 340 319 296 278 268 261 255 252 250 248 247 244 243 241 240 240 238 236 235 234 234 233 232 231 229 228 226 225 225 224 223 223 222 222 221 221 221 221 221 222 222 222 223 223
137 182 229 265 108 139 168 252 351 238 249 261 252 256 275 296 288 320 34 29 10 356 4 20 23 36 44 39 42 39 32 28 21 23 23 19 20 18 18 21 23 25 26 26 27 27 28 28 26 25 24 20 13 2 347 326 304 287 276 267 261 258 255 253 250 249 247 245 244 243 241 239 237 236 236 235 233 231 229 228 227 227 226 225 225 224 223 222 221 221 221 222 222 221 221 222 222
149 193 219 84 208 219 146 189 213 239 245 253 251 257 264 246 247 295 326 2 38 13 16 32 31 34 34 30 36 34 30 27 21 21 18 15 19 17 18 21 23 26 27 28 28 28 29 28 26 24 23 23 24 19 8 351 331 308 292 281 273 267 262 258 254 251 249 247 246 245 244 243 241 240 238 236 233 231 230 229 228 227 227 226 226 225 224 223 222 222 221 221 221 221 221 221 221
99 130 329 75 180 200 153 183 190 248 253 252 247 254 257 247 243 167 194 102 65 26 34 46 35 33 33 28 29 24 25 29 22 21 17 15 19 20 24 26 26 28 28 27 28 28 28 27 25 24 21 21 23 22 17 8 354 334 314 300 289 280 271 265 259 255 251 248 248 247 246 246 244 242 240 237 235 232 230 229 228 227 226 226 226 225 224 224 223 223 223 222 221 220 220 221 220
136 161 226 213 172 70 275 231 176 209 247 253 250 248 251 262 153 119 98 46 34 33 63 67 42 33 30 23 23 17 21 28 25 25 21 19 23 25 29 31 31 32 29 28 27 26 26 25 24 22 20 19 19 18 17 14 8 357 340 325 312 298 284 274 267 262 258 255 253 251 250 250 247 244 242 239 237 234 232 230 229 227 226 225 225 224 223 223 223 224 223 223 222 221 220 220 219
177 199 203 210 224 253 272 252 191 186 227 227 246 256 249 262 292 78 68 52 42 39 58 68 48 37 30 22 20 14 16 20 19 22 20 20 25 24 26 28 28 29 26 25 24 22 23 22 20 19 18 17 14 13 15 15 15 11 1 349 335 320 303 288 276 270 266 263 260 258 255 253 251 248 246 242 239 236 233 231 229 228 227 225 224 223 222 222 222 223 222 222 221 220 220 218 217